Regional Weather Roundup
Issued by NWS Newport/Morehead, NC

Current Version | Previous Version | Graphics & Text | Print | Product List | Glossary On
Versions: 1 2 3 4 5 6 7 8 9 10 11 12 13 14 15 16 17 18 19 20 21 22 23 24 25 26 27 28 29 30 31 32 33 34 35 36 37 38 39 40 41 42 43 44 45 46 47 48 49 50
000 ASUS42 KMHX 010225 RWRMHX WEATHER ROUNDUP FOR EASTERN NORTH CAROLINA NATIONAL WEATHER SERVICE NEWPORT/MOREHEAD CITY NC 1000 PM EDT TUE JUN 30 2015 NOTE: "FAIR" INDICATES FEW OR NO CLOUDS BELOW 12,000 FEET WITH NO SIGNIFICANT WEATHER AND/OR OBSTRUCTIONS TO VISIBILITY NCZ015>017-031-032-045>047-102-103-010300- NORTH COAST CITY SKY/WX TMP DP RH WIND PRES REMARKS EDENTON N/A 81 68 64 SW13 29.92 ELIZABETH CITY PTCLDY 75 63 66 S5 29.91F KITTY HAWK NOT AVBL MANTEO CLEAR 81 69 68 SW17 29.94 $$ NCZ045>047-081-094-103-104-010300- CENTRAL COAST CITY SKY/WX TMP DP RH WIND PRES REMARKS FRISCO CLEAR 80 72 76 SW16G25 29.97R SWANQUARTER N/A 82 N/A N/A SW20G28 29.91S $$ NCZ095-097-098-100-101-010300- SOUTHERN COAST CITY SKY/WX TMP DP RH WIND PRES REMARKS BEAUFORT PTCLDY 81 73 76 SW21G28 29.97R CEDAR ISLAND N/A 81 N/A N/A S10G23 30.00S JACKSONVILLE MOCLDY 80 67 64 SW10 29.96R PINEY ISLAND PTCLDY N/A N/A N/A SW12 29.96R WILMINGTON CLOUDY 81 72 74 SW14G20 29.97R $$ NCZ011>013-027>030-043-044-078>080-089-090>093-098-010300- COASTAL PLAIN CITY SKY/WX TMP DP RH WIND PRES REMARKS AHOSKIE NOT AVBL CLINTON NOT AVBL ELIZABETHTOWN LGT RAIN 71 70 96 CALM 29.96 GOLDSBORO PTCLDY 72 68 88 SW10 29.94S GREENVILLE NOT AVBL HAVELOCK PTCLDY 81 70 69 SW16G24 29.97R KENANSVILLE NOT AVBL KINSTON CLOUDY 82 66 57 W15G23 29.96R NEW BERN PTCLDY 79 70 74 S9 29.96R RICHLANDS MOCLDY 79 64 61 SW12G20 29.96S ROCKY MOUNT CLOUDY 73 68 84 S9 29.93R WASHINGTON PTCLDY 80 68 67 S10G17 29.93 WHITEVILLE NOT AVBL $$ AMZ130-135-150-152-154-156-158-170-250-252-270-ANZ085-086-088-633-658-670-010300- MARINE OBSERVATIONS STATION/POSITION TIME TEMP WIND PRES WAVE SWELL AIR SEA DIR/SP/G HT/PER HT/PER (UTC) (F) (DEG/KT/KT) (MB) (FT/S) (FT/S) CHESAPEAKE LIGHT 0200 81 200/ 24/ 25 1011.6 64 E VA BEACH 0150 78 76 200/ 17/ 19 1012.9 4/ 8 2/ 8 DUCK 0200 83 69 210/ 14/ 21 1012.1 2 E DUCK 0111 76 N/A 2/ 8 OREGON INLET 0200 82 84 200/ 20/ 24 1013.7 13E OREGON INLT 0200 73 N/A 4/ 7 HATTERAS CG 0200 81 83 220/ 12/ 21 1014.4 DIAMOND BUOY 0150 83 81 220/ 23/ 27 1014.3 5/ 5 2/ 8 CAPE LOOKOUT 0200 81 220/ 15/ 20 1014.8 BEAUFORT LAB 0200 81 81 220/ 12/ 16 1014.2 30 SE NEW RVR IN NOT AVBL 27 SE WRIGHTSVLE 0200 81 230/ 17/ 21 N/A 5 SE WRIGHTSVLE 0108 81 79 220/ 21/ 25 1014.3 225 S CAPE HAT 0150 81 80 230/ 16/ 19 1018.5 5/ 7 3/ 7 41 SE CHARLESTON 0150 82 83 220/ 17/ 21 1014.8 4/ 5 2/ 8 $$

USA.gov is the U.S. government's official web portal to all federal, state and local government web resources and services.